TimePST,TemperatureF,Dew PointF,Humidity,Sea Level PressureIn,VisibilityMPH,Wind Direction,Wind SpeedMPH,Gust SpeedMPH,PrecipitationIn,Events,Conditions,WindDirDegrees,DateUTC
12:15 AM,37.4,37.4,100,30.00,10.0,WNW,4.6,-,N/A,,Mostly Cloudy,290,2012-11-10 08:15:00
12:35 AM,37.4,37.4,100,30.00,10.0,NW,3.5,-,N/A,,Mostly Cloudy,320,2012-11-10 08:35:00
12:55 AM,37.4,37.4,100,30.01,10.0,NW,4.6,-,N/A,,Partly Cloudy,310,2012-11-10 08:55:00
1:15 AM,37.4,37.4,100,30.00,10.0,NW,4.6,-,N/A,,Partly Cloudy,310,2012-11-10 09:15:00
1:35 AM,37.4,37.4,100,30.01,10.0,NW,3.5,-,N/A,,Mostly Cloudy,310,2012-11-10 09:35:00
1:55 AM,37.4,37.4,100,30.01,10.0,NW,4.6,-,N/A,,Mostly Cloudy,310,2012-11-10 09:55:00
2:15 AM,37.4,37.4,100,30.01,10.0,WNW,4.6,-,N/A,,Scattered Clouds,300,2012-11-10 10:15:00
2:35 AM,37.4,35.6,93,30.01,10.0,NW,4.6,-,N/A,,Mostly Cloudy,320,2012-11-10 10:35:00
2:55 AM,37.4,37.4,100,30.01,10.0,WNW,5.8,-,N/A,,Mostly Cloudy,300,2012-11-10 10:55:00
3:15 AM,37.4,37.4,100,30.01,10.0,NW,3.5,-,N/A,,Mostly Cloudy,310,2012-11-10 11:15:00
3:35 AM,37.4,37.4,100,30.01,10.0,WNW,5.8,-,N/A,,Scattered Clouds,290,2012-11-10 11:35:00
3:55 AM,37.4,37.4,100,30.02,10.0,WNW,5.8,-,N/A,,Scattered Clouds,300,2012-11-10 11:55:00
4:15 AM,37.4,37.4,100,30.02,10.0,NW,5.8,-,N/A,,Partly Cloudy,310,2012-11-10 12:15:00
4:35 AM,37.4,37.4,100,30.03,10.0,WNW,6.9,-,N/A,,Mostly Cloudy,300,2012-11-10 12:35:00
4:55 AM,35.6,35.6,100,30.03,10.0,WNW,8.1,-,N/A,,Overcast,300,2012-11-10 12:55:00
5:15 AM,35.6,35.6,100,30.04,10.0,WNW,5.8,-,N/A,,Mostly Cloudy,300,2012-11-10 13:15:00
5:35 AM,35.6,35.6,100,30.04,10.0,WNW,9.2,-,N/A,,Mostly Cloudy,300,2012-11-10 13:35:00
5:55 AM,35.6,35.6,100,30.04,10.0,WNW,9.2,-,N/A,,Mostly Cloudy,300,2012-11-10 13:55:00
6:15 AM,35.6,35.6,100,30.05,9.0,WNW,8.1,-,N/A,,Scattered Clouds,300,2012-11-10 14:15:00
6:35 AM,35.6,35.6,100,30.06,10.0,WNW,8.1,-,N/A,,Clear,300,2012-11-10 14:35:00
6:55 AM,35.6,35.6,100,30.06,9.0,NW,4.6,-,N/A,,Clear,320,2012-11-10 14:55:00
7:15 AM,35.6,35.6,100,30.07,9.0,Calm,Calm,-,N/A,,Clear,0,2012-11-10 15:15:00
7:35 AM,37.4,37.4,100,30.08,10.0,Calm,Calm,-,N/A,,Clear,0,2012-11-10 15:35:00
7:55 AM,39.2,39.2,100,30.09,10.0,West,3.5,-,N/A,,Clear,280,2012-11-10 15:55:00
8:15 AM,41.0,39.2,93,30.10,10.0,SW,3.5,-,N/A,,Clear,230,2012-11-10 16:15:00
8:35 AM,41.0,39.2,93,30.11,10.0,Calm,Calm,-,N/A,,Clear,0,2012-11-10 16:35:00
8:55 AM,44.6,39.2,81,30.11,10.0,WNW,5.8,-,N/A,,Clear,290,2012-11-10 16:55:00
9:15 AM,46.4,41.0,81,30.12,10.0,WNW,5.8,-,N/A,,Clear,300,2012-11-10 17:15:00
9:35 AM,48.2,41.0,76,30.13,10.0,NW,4.6,-,N/A,,Clear,320,2012-11-10 17:35:00
9:55 AM,48.2,41.0,76,30.13,10.0,NW,5.8,-,N/A,,Clear,320,2012-11-10 17:55:00
10:15 AM,50.0,41.0,71,30.14,10.0,NNW,5.8,-,N/A,,Clear,330,2012-11-10 18:15:00
10:35 AM,50.0,39.2,66,30.14,10.0,NNW,6.9,-,N/A,,Clear,340,2012-11-10 18:35:00
10:55 AM,53.6,39.2,58,30.14,10.0,NNW,6.9,-,N/A,,Clear,330,2012-11-10 18:55:00
11:15 AM,53.6,37.4,54,30.14,10.0,NNW,6.9,-,N/A,,Clear,330,2012-11-10 19:15:00
11:35 AM,53.6,37.4,54,30.14,10.0,NW,5.8,-,N/A,,Clear,310,2012-11-10 19:35:00
11:55 AM,55.4,37.4,51,30.13,10.0,NNW,8.1,-,N/A,,Clear,340,2012-11-10 19:55:00
12:15 PM,55.4,35.6,47,30.13,10.0,NNW,9.2,-,N/A,,Clear,340,2012-11-10 20:15:00
12:35 PM,55.4,35.6,47,30.13,10.0,NNW,6.9,-,N/A,,Clear,330,2012-11-10 20:35:00
12:55 PM,57.2,35.6,44,30.12,10.0,NNW,9.2,-,N/A,,Clear,340,2012-11-10 20:55:00
1:15 PM,57.2,35.6,44,30.12,10.0,WNW,8.1,16.1,N/A,,Clear,300,2012-11-10 21:15:00
1:35 PM,57.2,35.6,44,30.12,10.0,NW,8.1,-,N/A,,Clear,320,2012-11-10 21:35:00
1:55 PM,57.2,35.6,44,30.12,10.0,NW,6.9,-,N/A,,Clear,310,2012-11-10 21:55:00
2:15 PM,57.2,39.2,51,30.12,10.0,West,10.4,-,N/A,,Partly Cloudy,270,2012-11-10 22:15:00
2:35 PM,57.2,39.2,51,30.12,10.0,WSW,12.7,-,N/A,,Clear,250,2012-11-10 22:35:00
2:55 PM,57.2,39.2,51,30.12,10.0,West,12.7,20.7,N/A,,Clear,260,2012-11-10 22:55:00
3:15 PM,55.4,39.2,54,30.12,10.0,West,13.8,-,N/A,,Clear,260,2012-11-10 23:15:00
3:35 PM,55.4,39.2,54,30.13,10.0,West,12.7,18.4,N/A,,Clear,260,2012-11-10 23:35:00
3:55 PM,55.4,39.2,54,30.13,10.0,West,12.7,-,N/A,,Clear,260,2012-11-10 23:55:00
4:15 PM,55.4,39.2,54,30.14,10.0,WSW,9.2,17.3,N/A,,Clear,250,2012-11-11 00:15:00
4:35 PM,53.6,39.2,58,30.14,10.0,West,9.2,-,N/A,,Clear,270,2012-11-11 00:35:00
4:55 PM,51.8,39.2,62,30.15,10.0,West,10.4,-,N/A,,Clear,260,2012-11-11 00:55:00
5:15 PM,50.0,39.2,66,30.16,10.0,West,9.2,-,N/A,,Clear,260,2012-11-11 01:15:00
5:35 PM,48.2,39.2,71,30.16,10.0,NW,4.6,-,N/A,,Clear,320,2012-11-11 01:35:00
5:55 PM,46.4,39.2,76,30.17,10.0,NW,4.6,-,N/A,,Clear,320,2012-11-11 01:55:00
6:15 PM,46.4,39.2,76,30.18,10.0,Calm,Calm,-,N/A,,Clear,0,2012-11-11 02:15:00
6:35 PM,44.6,39.2,81,30.18,10.0,Calm,Calm,-,N/A,,Clear,0,2012-11-11 02:35:00
6:55 PM,41.0,39.2,93,30.19,10.0,ENE,3.5,-,N/A,,Clear,60,2012-11-11 02:55:00
7:15 PM,41.0,39.2,93,30.20,10.0,NW,3.5,-,N/A,,Clear,310,2012-11-11 03:15:00
7:35 PM,41.0,39.2,93,30.20,10.0,NNW,3.5,-,N/A,,Clear,340,2012-11-11 03:35:00
7:55 PM,39.2,37.4,93,30.21,10.0,Calm,Calm,-,N/A,,Clear,0,2012-11-11 03:55:00
8:15 PM,39.2,39.2,100,30.21,10.0,Calm,Calm,-,N/A,,Clear,0,2012-11-11 04:15:00
8:55 PM,39.2,39.2,100,30.22,10.0,Calm,Calm,-,N/A,,Partly Cloudy,0,2012-11-11 04:55:00
9:15 PM,39.2,37.4,93,30.23,10.0,Calm,Calm,-,N/A,,Clear,0,2012-11-11 05:15:00
9:35 PM,37.4,37.4,100,30.23,10.0,NW,3.5,-,N/A,,Partly Cloudy,320,2012-11-11 05:35:00
9:55 PM,39.2,39.2,100,30.24,10.0,NW,3.5,-,N/A,,Partly Cloudy,320,2012-11-11 05:55:00
10:15 PM,37.4,37.4,100,30.24,10.0,NW,3.5,-,N/A,,Partly Cloudy,310,2012-11-11 06:15:00
10:35 PM,35.6,35.6,100,30.25,10.0,Calm,Calm,-,N/A,,Partly Cloudy,0,2012-11-11 06:35:00
10:55 PM,39.2,37.4,93,30.25,10.0,WNW,4.6,-,N/A,,Partly Cloudy,300,2012-11-11 06:55:00
11:15 PM,37.4,37.4,100,30.26,10.0,Calm,Calm,-,N/A,,Clear,0,2012-11-11 07:15:00
11:35 PM,37.4,37.4,100,30.26,10.0,Calm,Calm,-,N/A,,Clear,0,2012-11-11 07:35:00
11:55 PM,35.6,35.6,100,30.27,10.0,Calm,Calm,-,N/A,,Clear,0,2012-11-11 07:55:00